[[{"header":{"parameterUnit":"m.s-1","parameterCategory":1,"la1":30.2991,"la2":30.254,"lo1":-89.0895,"lo2":-89.0444,"dy":0.0017,"dx":0.0017,"nx":28,"ny":28,"refTime":"2024-02-22T03:00:00:Z","depth":0,"parameterNumber":2,"parameterNumberName":"U-component_of_WINDS"},"data":[0,0,0,0,0,0,0,0,0,0,0,0,0,0,0,0,0,0,0,0,0,0,0,0,0,0,0,0,0,0,0,0,0,0,0,0,0,0,0,0,0,0,0,0,0,0,0,0,0,0,0,0,0,0,0,0,0,0,0.4103,0.4101,0,0.3949,0.3947,0.3946,0.3862,0.3862,0.3862,0.3862,0.3707,0.3703,0.3699,0,0,0,0,0,0,0,0,0,0,0,0,0,0.4328,0.4324,0.4103,0.4101,0.4099,0.3949,0.3947,0.3945,0.3863,0.3862,0.3862,0.3862,0.3708,0.3704,0.3699,0,0,0,0,0,0,0,0,0,0,0,0,0,0.4208,0.4323,0.4103,0.404,0.4032,0.395,0.3947,0.3945,0.3863,0.3862,0.3862,0.3862,0.371,0.3704,0.3698,0.3668,0,0,0.368,0.3678,0,0,0,0,0,0,0,0,0.4215,0.42,0.4051,0.4044,0.4036,0.3925,0.397,0.3852,0.3863,0.3927,0.3862,0.3862,0.378,0.3768,0.374,0.3661,0.3654,0.368,0.3676,0.3674,0.3672,0,0,0,0,0,0,0,0.4223,0.4206,0.4042,0.4049,0.4039,0.402,0.4003,0.3947,0.3857,0.3921,0.3915,0.3898,0.3776,0.3746,0.3736,0.3652,0.368,0.3675,0.3671,0.3669,0.3542,0.3542,0,0,0,0,0,0,0.4241,0.4213,0.4047,0.4037,0.4126,0.4016,0.3997,0.3961,0.3857,0.3841,0.3898,0.3895,0.3756,0.3743,0.373,0.3689,0.3674,0.3668,0.3665,0.3542,0.3542,0.3542,0,0,0,0,0,0,0.4246,0.4227,0.4053,0.4124,0.41,0.4013,0.3973,0.3958,0.3928,0.384,0.3824,0.3884,0.3755,0.3738,0.3684,0.3682,0.3665,0.366,0.3542,0.3542,0.3542,0.3606,0,0,0,0,0,0,0.4253,0.4229,0.4216,0.4124,0.4096,0.4009,0.3972,0.3955,0.3918,0.3911,0.3823,0.3808,0.3754,0.3694,0.3679,0.3674,0.3655,0.3541,0.3542,0.3542,0.3604,0.3608,0.3613,0,0,0,0,0,0.4261,0.424,0.4216,0.4196,0.4078,0.4009,0.3993,0.3931,0.3918,0.3904,0.3848,0.381,0.3685,0.3689,0.3671,0.3665,0.3541,0.3542,0.3542,0.3602,0.3608,0.3612,0,0,0,0,0,0,0.4334,0.4227,0.4199,0.4146,0.4088,0.3995,0.3976,0.3939,0.3883,0.388,0.3806,0.3787,0.374,0.3697,0.3703,0.3631,0.3609,0.3606,0.3661,0.3666,0.367,0.3682,0.3651,0,0,0,0,0,0.4344,0.4297,0.4206,0.4169,0.414,0.4064,0.4031,0.3989,0.3925,0.39,0.384,0.378,0.3727,0.3694,0.364,0.3597,0.3578,0.3584,0.3589,0.3593,0.3591,0.3567,0.3569,0.3544,0.3544,0.3544,0,0,0.4364,0.43,0.4274,0.4182,0.4131,0.4085,0.4043,0.3995,0.396,0.3893,0.3838,0.3792,0.3721,0.3673,0.3648,0.3635,0.3594,0.3593,0.3597,0.3593,0.3568,0.357,0.3573,0.3544,0.3544,0.3544,0,0,0.4377,0.4323,0.4287,0.4238,0.4162,0.4111,0.4103,0.4016,0.3983,0.3927,0.3876,0.3834,0.3744,0.3696,0.366,0.3658,0.3622,0.3643,0.3666,0.3643,0.3645,0.3647,0.3647,0.3648,0.3641,0.3641,0.3641,0,0.4412,0.4339,0.4273,0.4229,0.4191,0.4127,0.4091,0.4047,0.3958,0.3933,0.392,0.3807,0.3754,0.3695,0.3695,0.3667,0.3657,0.3652,0.365,0.3651,0.3651,0.3651,0.3651,0.3644,0.3644,0.3644,0.3643,0,0.4386,0.4337,0.4317,0.4233,0.4192,0.4152,0.4082,0.4049,0.4011,0.3963,0.3908,0.3843,0.3776,0.3759,0.3721,0.3695,0.3689,0.3664,0.3641,0.3658,0.3657,0.3656,0.3649,0.3648,0.3647,0.3646,0,0,0.4439,0.432,0.4314,0.4276,0.4189,0.415,0.4109,0.4043,0.4017,0.3958,0.3923,0.3849,0.3826,0.3785,0.3741,0.3722,0.3726,0.3699,0.3696,0.3707,0.3695,0.3715,0.3716,0.3702,0.3701,0.3701,0.3702,0,0.444,0.4361,0.4302,0.4246,0.4201,0.4142,0.4106,0.405,0.4004,0.396,0.3909,0.3859,0.3831,0.3807,0.3784,0.373,0.3723,0.3729,0.3669,0.3668,0.3689,0.3715,0.3735,0.3739,0.37,0.37,0.37,0,0.443,0.4374,0.4314,0.4234,0.4212,0.4181,0.4117,0.4076,0.4011,0.398,0.3935,0.3891,0.3846,0.3827,0.3765,0.3771,0.3743,0.3713,0.3712,0.3704,0.3685,0.3709,0.3738,0.374,0.3698,0.3699,0.3699,0,0.4476,0.4385,0.4338,0.4307,0.4212,0.4192,0.4152,0.4087,0.4052,0.3997,0.3974,0.3915,0.3882,0.3838,0.378,0.3771,0.3724,0.37,0.3698,0.37,0.3691,0.3692,0.3717,0.3672,0.3672,0.3672,0.3672,0,0.4483,0.4449,0.4358,0.4329,0.429,0.4224,0.4187,0.4142,0.4085,0.4048,0.3993,0.3959,0.3883,0.3841,0.3795,0.3752,0.3737,0.3711,0.37,0.3716,0.372,0.3697,0.3696,0.3672,0.3672,0.3672,0.3672,0,0.4527,0.4465,0.441,0.4325,0.4303,0.4278,0.4206,0.4177,0.4129,0.4082,0.4068,0.3993,0.394,0.3877,0.3804,0.3773,0.3735,0.3716,0.3756,0.375,0.3751,0.3753,0.3763,0.3762,0.3717,0.3718,0.3718,0,0.4536,0.4509,0.4422,0.4393,0.4354,0.4308,0.4272,0.4207,0.4173,0.4099,0.4079,0.4022,0.3973,0.3892,0.3832,0.3776,0.3757,0.3765,0.3748,0.3767,0.3759,0.3761,0.3759,0.3769,0.377,0.3771,0.3771,0,0.4559,0.453,0.4481,0.4422,0.4382,0.4332,0.428,0.426,0.4184,0.4148,0.4094,0.4056,0.3982,0.3927,0.3865,0.3824,0.3786,0.3777,0.3774,0.3791,0.3816,0.3804,0.3769,0.3777,0.3776,0.3776,0.3776,0.3775,0.4586,0.456,0.4496,0.4443,0.4398,0.4351,0.432,0.4269,0.4223,0.4157,0.4122,0.4069,0.4008,0.3919,0.3881,0.3839,0.3825,0.382,0.3819,0.3819,0.3825,0.3822,0.3827,0.3827,0.3827,0.3827,0.3826,0,0.4607,0.4563,0.4516,0.4446,0.4406,0.4374,0.4315,0.4284,0.4238,0.4184,0.4138,0.4077,0.4024,0.396,0.3903,0.3882,0.3864,0.387,0.3871,0.3863,0.384,0.3849,0.3886,0.3886,0.3886,0.3886,0.3886,0.3886,0.4613,0.4568,0.4532,0.4465,0.4421,0.4369,0.4339,0.4297,0.4253,0.4188,0.4144,0.4103,0.4045,0.3984,0.3935,0.3918,0.39,0.3912,0.389,0.3869,0.3864,0.3859,0.3867,0.3908,0.3908,0.3916,0.3916,0.3916]},{"header":{"parameterUnit":"m.s-1","parameterCategory":1,"la1":30.2991,"la2":30.254,"lo1":-89.0895,"lo2":-89.0444,"dy":0.0017,"dx":0.0017,"nx":28,"ny":28,"refTime":"2024-02-22T03:00:00:Z","depth":0,"parameterNumber":3,"parameterNumberName":"V-component_of_WINDS"},"data":[0,0,0,0,0,0,0,0,0,0,0,0,0,0,0,0,0,0,0,0,0,0,0,0,0,0,0,0,0,0,0,0,0,0,0,0,0,0,0,0,0,0,0,0,0,0,0,0,0,0,0,0,0,0,0,0,0,0,5.3834,5.3834,0,5.3782,5.3781,5.378,5.3768,5.3768,5.3769,5.3769,5.3714,5.3712,5.371,0,0,0,0,0,0,0,0,0,0,0,0,0,5.3926,5.3925,5.3835,5.3834,5.3833,5.3782,5.3781,5.378,5.3768,5.3768,5.3769,5.3769,5.3714,5.3712,5.371,0,0,0,0,0,0,0,0,0,0,0,0,0,5.3881,5.3924,5.3835,5.3821,5.3819,5.3782,5.3781,5.378,5.3768,5.3768,5.3769,5.377,5.3715,5.3713,5.371,5.3682,0,0,5.3702,5.37,0,0,0,0,0,0,0,0,5.3884,5.3878,5.3824,5.3822,5.382,5.3782,5.3793,5.3747,5.3768,5.3787,5.3769,5.377,5.3736,5.3732,5.372,5.3679,5.3677,5.3701,5.37,5.3698,5.3698,0,0,0,0,0,0,0,5.3887,5.388,5.3813,5.3823,5.3821,5.3818,5.3812,5.3784,5.3759,5.3786,5.3785,5.3779,5.3735,5.3723,5.3719,5.3676,5.3701,5.3699,5.3697,5.3696,5.3613,5.3612,0,0,0,0,0,0,5.3892,5.3883,5.3815,5.3812,5.3854,5.3816,5.3809,5.3794,5.3759,5.3755,5.3778,5.3778,5.3727,5.3722,5.3717,5.3684,5.3698,5.3696,5.3694,5.3613,5.3613,5.3612,0,0,0,0,0,0,5.3894,5.3887,5.3817,5.3847,5.3838,5.3814,5.3796,5.3792,5.378,5.3754,5.3749,5.377,5.3728,5.3721,5.3692,5.3682,5.3695,5.3692,5.3614,5.3613,5.3612,5.3616,0,0,0,0,0,0,5.3897,5.3887,5.3876,5.3847,5.3837,5.3792,5.3795,5.3791,5.3776,5.3775,5.3745,5.3741,5.3728,5.3696,5.3689,5.3678,5.369,5.3615,5.3614,5.3613,5.3617,5.3616,5.3615,0,0,0,0,0,5.39,5.3878,5.3875,5.3867,5.3822,5.3792,5.3786,5.3771,5.3775,5.3764,5.3747,5.3742,5.3684,5.3693,5.3685,5.3673,5.3615,5.3614,5.3613,5.3618,5.3616,5.3615,0,0,0,0,0,0,5.3905,5.3874,5.387,5.3838,5.3818,5.379,5.3775,5.377,5.3747,5.3748,5.373,5.3724,5.3696,5.3682,5.3692,5.3646,5.365,5.3647,5.3656,5.3655,5.3654,5.3658,5.3688,0,0,0,0,0,5.3903,5.3881,5.3855,5.3829,5.3819,5.3799,5.3785,5.3776,5.3754,5.3745,5.3726,5.3705,5.3683,5.3668,5.3645,5.3615,5.361,5.3604,5.3603,5.3602,5.36,5.3585,5.3583,5.3608,5.3608,5.3608,0,0,5.3897,5.3877,5.3864,5.383,5.3813,5.3791,5.3792,5.3768,5.3752,5.3741,5.3713,5.3699,5.3674,5.3645,5.3632,5.3633,5.3592,5.36,5.36,5.3598,5.3584,5.3581,5.3579,5.3607,5.3607,5.3607,0,0,5.3876,5.3858,5.3836,5.382,5.3795,5.3782,5.3777,5.375,5.3741,5.3712,5.3705,5.3686,5.3646,5.363,5.3617,5.3593,5.3588,5.3586,5.358,5.3566,5.3564,5.3562,5.3555,5.3553,5.3584,5.3584,5.3584,0,5.3872,5.3839,5.3825,5.3802,5.3788,5.3779,5.3757,5.3742,5.3711,5.3702,5.3704,5.3656,5.3639,5.3607,5.3602,5.3591,5.3585,5.3589,5.3566,5.3564,5.3562,5.3555,5.3552,5.3584,5.3584,5.3584,5.3584,0,5.3836,5.3813,5.3798,5.377,5.3754,5.3732,5.3716,5.3701,5.3695,5.3682,5.3655,5.3634,5.3609,5.36,5.3593,5.3568,5.357,5.3569,5.3572,5.356,5.3553,5.355,5.3584,5.3584,5.3584,5.3584,0,0,5.3814,5.3781,5.3775,5.3763,5.3737,5.3719,5.3698,5.3674,5.3663,5.3642,5.3625,5.3594,5.3594,5.3578,5.3569,5.3557,5.3542,5.3558,5.3557,5.3556,5.3516,5.3517,5.3514,5.3539,5.3538,5.3538,5.3518,0,5.379,5.3751,5.374,5.3708,5.3688,5.3681,5.3662,5.3645,5.3633,5.3615,5.3602,5.3581,5.3582,5.3573,5.3561,5.3546,5.3534,5.3548,5.3523,5.3522,5.3529,5.351,5.3511,5.3493,5.3516,5.3515,5.3515,0,5.3756,5.3737,5.3703,5.3682,5.3673,5.3657,5.3635,5.3618,5.3599,5.3591,5.3576,5.3569,5.3547,5.3553,5.3524,5.3534,5.3524,5.3515,5.3514,5.3511,5.3518,5.3507,5.3487,5.3484,5.351,5.3511,5.3511,0,5.3746,5.3711,5.3687,5.3677,5.3651,5.364,5.3629,5.361,5.3597,5.3579,5.3571,5.355,5.3538,5.3522,5.351,5.3515,5.3483,5.3487,5.3477,5.3478,5.347,5.3471,5.3448,5.3463,5.3463,5.3463,5.3463,0,5.372,5.37,5.3682,5.3667,5.3645,5.3633,5.3612,5.36,5.3584,5.3568,5.356,5.3545,5.353,5.3513,5.3504,5.3482,5.3477,5.3471,5.3469,5.3472,5.3473,5.3464,5.3465,5.3463,5.3463,5.3463,5.3463,0,5.3704,5.3691,5.3665,5.3643,5.3637,5.3622,5.3604,5.359,5.358,5.3559,5.3554,5.3537,5.3517,5.3504,5.3478,5.3472,5.3449,5.3446,5.3455,5.3454,5.3446,5.3447,5.3417,5.3413,5.3431,5.343,5.343,0,5.3689,5.3673,5.3651,5.364,5.3629,5.3611,5.3598,5.3587,5.3574,5.3553,5.3542,5.3522,5.3505,5.3474,5.346,5.3441,5.3438,5.3429,5.3435,5.3439,5.3439,5.344,5.3439,5.3428,5.3428,5.3428,5.3428,0,5.3664,5.3659,5.3641,5.3622,5.3608,5.3592,5.3576,5.3568,5.3554,5.354,5.352,5.3508,5.3483,5.3463,5.3443,5.3432,5.3428,5.3426,5.3423,5.3426,5.3432,5.343,5.3453,5.3427,5.3427,5.3427,5.3427,5.3427,5.3648,5.3635,5.3618,5.3599,5.3587,5.3573,5.356,5.3548,5.3531,5.3511,5.3505,5.3485,5.3468,5.3441,5.3431,5.3415,5.3416,5.3411,5.341,5.3409,5.341,5.3435,5.3411,5.3411,5.3411,5.3411,5.3411,0,5.3623,5.3613,5.3596,5.3575,5.3561,5.3559,5.3542,5.3531,5.3513,5.3499,5.3483,5.3462,5.3444,5.3429,5.3411,5.3401,5.3399,5.3397,5.3398,5.3396,5.3409,5.3414,5.3399,5.3399,5.3399,5.3399,5.3399,5.3399,5.3609,5.3588,5.3581,5.3554,5.3544,5.3524,5.3515,5.3503,5.3491,5.3468,5.3453,5.3444,5.343,5.3411,5.3395,5.3392,5.3385,5.3384,5.338,5.3393,5.3394,5.3396,5.34,5.3383,5.3383,5.3367,5.3367,5.3367]}]]